Washington, PA

7:46 PM EDT on May 26, 2017 (GMT -0400)
Washington County

Weather History for KAFJ - December, 2013

Change the Weather History Date:

Friday, December 6, 2013

  Actual Average Record
Temperature  
Mean Temperature 34 °F -  
Max Temperature 39 °F 42 °F 71 °F (1998)
Min Temperature 28 °F 27 °F 0 °F (2007)
Degree Days  
Heating Degree Days 32    
Moisture  
Dew Point 30 °F    
Average Humidity 89    
Maximum Humidity 93    
Minimum Humidity 81    
Precipitation  
Precipitation 0.71 in - - ()
Sea Level Pressure  
Sea Level Pressure 30.15 in    
Wind  
Wind Speed 6 mph (North)    
Max Wind Speed 12 mph    
Max Gust Speed -    
Visibility 7 miles    
Events      
Averages and records for this station are not official NWS values.
T = Trace of Precipitation, MM = Missing Value Source: NWS Daily Summary

Daily Weather History Graph

Daily Weather History Graph

Search for Another Location

Airport or City:

Trip Planner

Search our weather history database for the weather conditions in past years. The results will help you decide how hot, cold, wet, or windy it might be!

Date:

Astronomy

Dec. 06, 2013 Rise Set
Actual Time 7:29 AM EST 4:55 PM EST
Civil Twilight 6:58 AM EST 5:25 PM EST
Nautical Twilight 6:24 AM EST 5:59 PM EST
Astronomical Twilight 5:52 AM EST 6:32 PM EST
Moon 10:33 AM EST (12/6) 9:25 PM EST (12/6)
Length of Visible Light 10h 26m
Length of Day
9h 26m
Waxing Crescent, 19% of the Moon is Illuminated
Dec 6
Waxing Crescent
Dec 9
First Quarter
Dec 17
Full
Dec 25
Last Quarter
Jan 1
New

Hourly Weather History & Observations

Time (EST) Temp. Windchill Dew Point Humidity Pressure Visibility Wind Dir Wind Speed Gust Speed Precip Events Conditions
12:15 AM 39.2 °F 35.0 °F 37.4 °F 93% 30.07 in 9.0 mi West 5.8 mph - 0.06 in   Overcast
12:35 AM 39.2 °F 33.0 °F 37.4 °F 93% 30.03 in 9.0 mi North 9.2 mph - 0.08 in   Overcast
12:55 AM 39.2 °F 33.0 °F 35.6 °F 87% 30.07 in 10.0 mi North 9.2 mph - 0.09 in   Overcast
1:15 AM 37.4 °F 31.4 °F 35.6 °F 93% 30.07 in 9.0 mi North 8.1 mph - 0.03 in   Overcast
1:35 AM 37.4 °F 34.9 °F 33.8 °F 87% 30.08 in 9.0 mi NNW 3.5 mph - 0.06 in   Overcast
1:55 AM 37.4 °F 32.1 °F 33.8 °F 87% 30.09 in 8.0 mi NNW 6.9 mph - 0.09 in   Overcast
2:15 AM 37.4 °F - 33.8 °F 87% 30.07 in 6.0 mi Calm Calm - 0.02 in   Overcast
2:35 AM 35.6 °F 30.7 °F 33.8 °F 93% 30.07 in 5.0 mi North 5.8 mph - 0.03 in   Overcast
2:55 AM 35.6 °F 30.7 °F 33.8 °F 93% 30.07 in 5.0 mi NE 5.8 mph - 0.03 in   Overcast
3:15 AM 35.6 °F 31.7 °F 33.8 °F 93% 30.08 in 4.0 mi NE 4.6 mph - N/A   Overcast
3:35 AM 35.6 °F 29.9 °F 33.8 °F 93% 30.10 in 7.0 mi North 6.9 mph - N/A   Overcast
3:55 AM 35.6 °F - 33.8 °F 93% 30.12 in 5.0 mi Calm Calm - 0.01 in   Overcast
4:15 AM 35.6 °F 31.7 °F 33.8 °F 93% 30.09 in 3.0 mi North 4.6 mph - 0.01 in   Overcast
4:35 AM 35.6 °F 31.7 °F 33.8 °F 93% 30.09 in 4.0 mi NE 4.6 mph - 0.01 in   Overcast
4:55 AM 33.8 °F 28.6 °F 32.0 °F 93% 30.09 in 9.0 mi NE 5.8 mph - 0.01 in   Overcast
5:15 AM 35.6 °F 29.9 °F 33.8 °F 93% 30.10 in 10.0 mi North 6.9 mph - N/A   Overcast
5:35 AM 33.8 °F 29.6 °F 32.0 °F 93% 30.11 in 7.0 mi North 4.6 mph - N/A   Overcast
5:55 AM 35.6 °F - 32.0 °F 87% 30.13 in 6.0 mi Calm Calm - 0.01 in   Overcast
6:15 AM 35.6 °F 30.7 °F 32.0 °F 87% 30.15 in 5.0 mi NW 5.8 mph - 0.03 in   Overcast
6:35 AM 33.8 °F 29.6 °F 32.0 °F 93% 30.15 in 5.0 mi NNW 4.6 mph - 0.06 in   Overcast
6:55 AM 33.8 °F 29.6 °F 30.2 °F 87% 30.15 in 7.0 mi North 4.6 mph - 0.07 in   Overcast
7:15 AM 33.8 °F 29.6 °F 30.2 °F 87% 30.13 in 7.0 mi NNE 4.6 mph - 0.02 in   Overcast
7:35 AM 33.8 °F 28.6 °F 30.2 °F 87% 30.13 in 10.0 mi North 5.8 mph - 0.02 in   Overcast
7:55 AM 33.8 °F 28.6 °F 30.2 °F 87% 30.13 in 10.0 mi North 5.8 mph - 0.02 in   Overcast
8:15 AM 33.8 °F 29.6 °F 30.2 °F 87% 30.13 in 8.0 mi North 4.6 mph - N/A   Overcast
8:35 AM 33.8 °F 27.0 °F 30.2 °F 87% 30.14 in 9.0 mi North 8.1 mph - N/A   Overcast
8:55 AM 33.8 °F 28.6 °F 30.2 °F 87% 30.15 in 10.0 mi NNE 5.8 mph - N/A   Overcast
9:15 AM 33.8 °F 28.6 °F 30.2 °F 87% 30.17 in 10.0 mi NNW 5.8 mph - N/A   Overcast
9:35 AM 33.8 °F 27.7 °F 30.2 °F 87% 30.17 in 10.0 mi North 6.9 mph - N/A   Overcast
9:55 AM 33.8 °F 28.6 °F 30.2 °F 87% 30.17 in 10.0 mi North 5.8 mph - N/A   Overcast
10:15 AM 35.6 °F 30.7 °F 30.2 °F 81% 30.17 in 10.0 mi NNE 5.8 mph - N/A   Overcast
10:35 AM 35.6 °F 30.7 °F 30.2 °F 81% 30.18 in 10.0 mi North 5.8 mph - N/A   Overcast
10:55 AM 35.6 °F 29.9 °F 30.2 °F 81% 30.15 in 10.0 mi North 6.9 mph - N/A   Overcast
11:15 AM 35.6 °F 29.9 °F 30.2 °F 81% 30.14 in 10.0 mi North 6.9 mph - N/A   Overcast
11:35 AM 35.6 °F 28.0 °F 30.2 °F 81% 30.15 in 10.0 mi NNW 10.4 mph - N/A   Overcast
11:55 AM 35.6 °F 29.9 °F 30.2 °F 81% 30.15 in 10.0 mi NW 6.9 mph - N/A   Overcast
12:15 PM 35.6 °F 31.7 °F 30.2 °F 81% 30.16 in 10.0 mi North 4.6 mph - N/A   Overcast
12:35 PM 33.8 °F 27.0 °F 30.2 °F 87% 30.14 in 10.0 mi North 8.1 mph - N/A   Overcast
12:55 PM 33.8 °F 25.3 °F 30.2 °F 87% 30.12 in 6.0 mi North 11.5 mph - 0.02 in   Overcast
1:15 PM 33.8 °F 25.8 °F 30.2 °F 87% 30.11 in 10.0 mi North 10.4 mph - N/A   Overcast
1:35 PM 33.8 °F 27.0 °F 28.4 °F 81% 30.12 in 10.0 mi North 8.1 mph - N/A   Overcast
1:55 PM 33.8 °F 29.6 °F 30.2 °F 87% 30.13 in 7.0 mi North 4.6 mph - N/A   Overcast
2:15 PM 33.8 °F 28.6 °F 30.2 °F 87% 30.12 in 5.0 mi North 5.8 mph - 0.02 in   Overcast
2:35 PM 33.8 °F 26.4 °F 30.2 °F 87% 30.11 in 8.0 mi North 9.2 mph - 0.02 in   Overcast
2:55 PM 33.8 °F 26.4 °F 30.2 °F 87% 30.12 in 5.0 mi North 9.2 mph - 0.02 in   Overcast
3:15 PM 33.8 °F 27.7 °F 30.2 °F 87% 30.15 in 5.0 mi NNW 6.9 mph - 0.01 in   Mostly Cloudy
3:35 PM 32.0 °F 25.6 °F 30.2 °F 93% 30.13 in 3.0 mi North 6.9 mph - 0.04 in   Mostly Cloudy
3:55 PM 32.0 °F 27.5 °F 28.4 °F 87% 30.13 in 5.0 mi North 4.6 mph - 0.07 in   Overcast
4:15 PM 32.0 °F 26.4 °F 28.4 °F 87% 30.12 in 6.0 mi North 5.8 mph - 0.02 in   Overcast
4:35 PM 32.0 °F 25.6 °F 30.2 °F 93% 30.10 in 4.0 mi NNE 6.9 mph - 0.03 in   Overcast
4:55 PM 32.0 °F 25.6 °F 28.4 °F 87% 30.13 in 7.0 mi North 6.9 mph - 0.04 in   Overcast
5:15 PM 32.0 °F 24.8 °F 28.4 °F 87% 30.15 in 9.0 mi North 8.1 mph - 0.01 in   Overcast
5:35 PM 30.2 °F 21.9 °F 26.6 °F 86% 30.17 in 10.0 mi NNE 9.2 mph - 0.03 in   Mostly Cloudy
5:55 PM 30.2 °F 22.6 °F 26.6 °F 86% 30.15 in 9.0 mi NNE 8.1 mph - 0.04 in   Overcast
6:15 PM 30.2 °F 23.4 °F 26.6 °F 86% 30.15 in 7.0 mi NE 6.9 mph - 0.01 in   Overcast
6:35 PM 30.2 °F 23.4 °F 28.4 °F 93% 30.17 in 8.0 mi North 6.9 mph - 0.03 in   Overcast
6:55 PM 30.2 °F 25.4 °F 26.6 °F 86% 30.20 in 3.0 mi North 4.6 mph - 0.03 in   Overcast
7:15 PM 30.2 °F 22.6 °F 26.6 °F 86% 30.19 in 1.2 mi NE 8.1 mph - 0.01 in   Overcast
7:35 PM 28.4 °F 21.2 °F 26.6 °F 93% 30.20 in 1.0 mi North 6.9 mph - 0.02 in   Overcast
7:55 PM 28.4 °F 22.2 °F 26.6 °F 93% 30.21 in 1.2 mi NNE 5.8 mph - 0.03 in   Overcast
8:15 PM 28.4 °F 24.6 °F 26.6 °F 93% 30.22 in 1.2 mi NNW 3.5 mph - 0.01 in   Overcast
8:35 PM 28.4 °F 21.2 °F 26.6 °F 93% 30.22 in 1.5 mi North 6.9 mph - 0.01 in   Overcast
8:55 PM 28.4 °F 21.2 °F 26.6 °F 93% 30.22 in 3.0 mi NNW 6.9 mph - 0.03 in   Overcast
9:15 PM 28.4 °F 24.6 °F 26.6 °F 93% 30.21 in 4.0 mi NNE 3.5 mph - 0.03 in   Overcast
9:35 PM 28.4 °F 22.2 °F 26.6 °F 93% 30.22 in 8.0 mi North 5.8 mph - 0.05 in   Overcast
9:55 PM 28.4 °F 24.6 °F 26.6 °F 93% 30.21 in 5.0 mi NNE 3.5 mph - 0.06 in   Overcast
10:15 PM 28.4 °F 21.2 °F 26.6 °F 93% 30.24 in 3.0 mi NNW 6.9 mph - 0.01 in   Overcast
10:35 PM 28.4 °F 21.2 °F 26.6 °F 93% 30.24 in 3.0 mi NNW 6.9 mph - 0.02 in   Overcast
10:55 PM 28.4 °F 20.4 °F 26.6 °F 93% 30.26 in 8.0 mi NW 8.1 mph - 0.02 in   Mostly Cloudy
11:15 PM 28.4 °F 20.4 °F 26.6 °F 93% 30.27 in 7.0 mi NNW 8.1 mph - 0.01 in   Overcast
11:35 PM 28.4 °F 20.4 °F 24.8 °F 86% 30.25 in 3.0 mi North 8.1 mph - 0.01 in   Overcast
11:55 PM 28.4 °F 24.6 °F 24.8 °F 86% 30.26 in 4.0 mi NNW 3.5 mph - 0.02 in   Overcast